User: anonymous   Login
Location: Newark
(25.3833°N, 97.4000°E)
Time: 22:34:52
(UTC+00:00)
Language:

PRISM - Orbit

View from above orbital plane
View from above orbital plane
View from above satellite
View from above satellite

Ground track
Ground track

The orbit data is extracted from the following two-line orbital elements,

1 33493U 09002B   20052.41369516  .00000547  00000-0  53124-4 0  9992
2 33493  98.1351 347.9316 0016208  83.5447 276.7618 14.96908064602206
Epoch (UTC): 21 February 2020 09:55:43
Eccentricity: 0.0016208
inclination: 98.1351°
perigee height: 565 km
apogee height: 588 km
right ascension of ascending node: 347.9316°
argument of perigee: 83.5447°
revolutions per day: 14.96908064
mean anomaly at epoch: 276.7618°
orbit number at epoch: 60220

The dashed part of the orbit path shows where the satellite is in the earth's shadow,  

DLR